Weather reports worldwide

Advertisment
Barth, Germany (10180): temperature & dewpoint: 24.10.2020 11:00:00 - 30.10.2020 11:00:00 (CET)Barth, Germany (10180): temperature 5cm & temperature -5cm: 24.10.2020 11:00:00 - 30.10.2020 11:00:00 (CET)Barth, Germany (10180): temperature -20cm & temperature -100cm: 24.10.2020 11:00:00 - 30.10.2020 11:00:00 (CET)Barth, Germany (10180): wind speed & gusts: 24.10.2020 11:00:00 - 30.10.2020 11:00:00 (CET)Barth, Germany (10180): wind direction: 24.10.2020 11:00:00 - 30.10.2020 11:00:00 (CET)Barth, Germany (10180): reduced air pressure: 24.10.2020 11:00:00 - 30.10.2020 11:00:00 (CET)Barth, Germany (10180): visibility: 24.10.2020 11:00:00 - 30.10.2020 11:00:00 (CET)Barth, Germany (10180): sunshine duration: 24.10.2020 11:00:00 - 30.10.2020 11:00:00 (CET)Barth, Germany (10180): precipitation: 24.10.2020 11:00:00 - 30.10.2020 11:00:00 (CET)
Date & Time tt [°C] td [°C] tt 5cm [°C] tt -5cm [°C] tt -20cm [°C] tt -100cm [°C] ff [km/h] ff [kn] fx [km/h] fx [kn] dd ppp [hPa] vv [km] sd [min] rr [mm]
30.10.2020 11:00:00 9,1 8,7 9,2 9,2 8,9 11,9 15 8 25 13 SSE 1012,2 2,8 0 0,7
30.10.2020 10:00:00 8,6 8,2 8,7 8,7 8,8 11,9 15 8 23 13 SSE 1012,0 3,8 0 1,4
30.10.2020 09:00:00 8,4 7,9 8,3 8,2 8,7 11,9 15 8 22 12 SE 1012,3 6 0 0,8
30.10.2020 08:00:00 8,1 7,6 7,9 7,8 8,7 11,9 14 8 21 11 SSE 1012,4 6 0 0,8
30.10.2020 07:00:00 7,7 7,1 7,4 7,5 8,7 11,9 13 7 21 11 SSE 1012,4 9 0 0,5
30.10.2020 06:00:00 7,4 6,7 7,0 7,3 8,7 11,9 10 6 18 10 S 1012,8 12 0 0,2
30.10.2020 05:00:00 7,3 6,5 6,8 7,2 8,8 11,9 9 5 16 9 SSE 1013,2 11 0 0,0
30.10.2020 04:00:00 6,9 6,0 6,4 7,0 8,9 12,0 10 6 16 8 S 1013,3 17 0 0,0
30.10.2020 03:00:00 6,6 5,9 5,4 6,9 9,1 12,0 6 3 13 7 SSE 1013,6 14 0 0,0
30.10.2020 02:00:00 7,0 6,1 5,8 7,1 9,2 12,0 6 4 18 10 S 1014,0 18 0 0,0
30.10.2020 01:00:00 7,3 6,3 5,9 7,3 9,4 12,0 13 7 24 13 SW 1014,1 20 0 0,0
30.10.2020 00:00:00 8,6 7,1 7,2 8,3 9,4 12,0 18 10 27 15 SW 1014,0 21 0 0,0
29.10.2020 23:00:00 9,8 8,1 9,3 8,8 9,4 12,0 16 9 29 16 WSW 1013,9 25 0 0,0
29.10.2020 22:00:00 10,4 8,3 9,7 8,6 9,4 12,0 19 11 29 16 WSW 1013,7 33 0 0,0
29.10.2020 21:00:00 9,7 7,5 8,6 8,0 9,5 12,0 19 10 32 18 W 1013,4 38 0 0,0
29.10.2020 20:00:00 10,2 7,7 8,9 8,5 9,6 12,0 24 13 39 21 W 1012,8 35 0 0,0
29.10.2020 19:00:00 9,0 7,5 7,5 8,2 9,7 12,0 15 8 26 14 WSW 1012,3 35 0 0,0
29.10.2020 18:00:00 9,2 7,6 7,7 8,2 9,9 12,0 16 9 27 15 WSW 1011,8 35 0 0,0
29.10.2020 17:00:00 8,9 7,1 7,5 8,5 10,0 12,0 20 11 42 23 WSW 1011,0 38 0 0,0
29.10.2020 16:00:00 10,5 7,7 9,5 9,7 10,0 12,0 25 13 48 26 WSW 1010,2 44 11 0,5
29.10.2020 15:00:00 9,9 8,4 9,1 10,1 10,0 12,0 29 16 47 26 WSW 1009,5 3,2 3 0,7
29.10.2020 14:00:00 10,2 7,5 9,4 10,3 9,9 12,0 28 15 47 26 WSW 1008,9 27 1 0,0
29.10.2020 13:00:00 10,4 7,1 10,4 10,7 9,7 12,0 31 17 45 25 WSW 1008,2 43 9 0,0
29.10.2020 12:00:00 9,7 7,7 9,4 10,2 9,5 12,0 20 11 37 20 WSW 1007,8 19 0 0,7
29.10.2020 11:00:00 10,1 7,1 9,8 9,8 9,4 12,0 26 14 42 23 WSW 1007,1 41 0 0,0
29.10.2020 10:00:00 9,6 7,1 9,0 9,7 9,2 12,0 24 13 45 24 WSW 1006,2 56 28 0,0
29.10.2020 09:00:00 9,3 7,5 8,7 8,8 9,2 12,0 20 11 32 17 SW 1005,3 64 0 0,0
29.10.2020 08:00:00 9,0 7,9 8,3 8,4 9,1 12,0 15 8 27 15 SW 1004,9 46 0 0,1
29.10.2020 07:00:00 9,2 8,4 8,7 8,4 9,1 12,0 18 10 26 14 SSW 1004,3 14 0 0,5
29.10.2020 06:00:00 9,1 8,1 8,3 8,2 9,1 12,0 13 7 26 14 SSW 1004,3 37 0 0,5
29.10.2020 05:00:00 9,1 7,8 8,3 8,0 9,1 12,1 13 7 23 12 S 1004,5 18 0 0,5
29.10.2020 04:00:00 9,2 7,3 8,5 7,6 9,1 12,1 11 6 21 11 S 1004,6 40 0 0,0
29.10.2020 03:00:00 9,1 6,9 7,9 7,5 9,2 12,1 10 6 24 13 S 1005,0 59 0 0,0
29.10.2020 02:00:00 9,4 7,2 8,4 7,5 9,3 12,1 14 8 23 12 S 1005,7 57 0 0,0
29.10.2020 01:00:00 8,7 6,7 7,2 7,1 9,5 12,1 12 6 24 13 S 1006,2 53 0 0,0
29.10.2020 00:00:00 8,1 6,5 6,8 7,2 9,7 12,1 14 8 22 12 SSE 1006,6 50 0 0,0
28.10.2020 23:00:00 7,9 6,3 5,4 7,5 9,8 12,1 8 4 18 10 SSE 1006,9 47 0 0,0
28.10.2020 22:00:00 9,1 6,9 7,6 8,0 10,0 12,1 11 6 19 10 S 1007,2 45 0 0,0
28.10.2020 21:00:00 9,5 7,2 8,0 8,3 10,2 12,1 12 6 19 11 S 1007,5 42 0 0,0
28.10.2020 20:00:00 9,8 7,3 8,7 8,7 10,4 12,1 13 7 21 12 S 1007,5 41 0 0,0
28.10.2020 19:00:00 9,6 7,4 8,0 8,8 10,6 12,1 10 6 18 10 S 1007,4 39 0 0,0
28.10.2020 18:00:00 10,3 7,6 8,4 9,4 10,8 12,1 10 5 16 9 S 1007,2 50 0 0,0
28.10.2020 17:00:00 11,2 7,7 9,1 10,4 10,9 12,1 10 6 18 10 S 1007,1 45 6 0,0
28.10.2020 16:00:00 12,4 8,2 11,7 11,4 10,9 12,1 13 7 31 17 SSW 1006,9 51 9 0,0
28.10.2020 15:00:00 13,0 8,0 12,3 12,1 10,7 12,1 19 10 32 18 SSW 1006,9 43 41 0,0
28.10.2020 14:00:00 13,6 8,5 14,3 12,8 10,4 12,1 18 10 37 20 SSW 1006,3 48 56 0,0
28.10.2020 13:00:00 13,8 9,4 15,7 12,5 10,0 12,1 19 10 31 17 SSW 1006,4 54 21 0,0
28.10.2020 12:00:00 12,1 9,0 12,2 12,1 9,6 12,1 20 11 36 19 SW 1006,4 41 51 0,0
28.10.2020 11:00:00 12,0 9,0 12,7 11,2 9,3 12,1 22 12 44 24 SW 1006,1 55 58 0,0
28.10.2020 10:00:00 10,6 8,4 10,3 9,7 9,2 12,1 21 11 39 21 SW 1005,9 46 14 0,0
28.10.2020 09:00:00 9,8 8,3 9,5 8,9 9,1 12,2 18 10 34 19 SSW 1005,1 58 0 0,0
28.10.2020 08:00:00 9,2 8,1 8,7 8,4 9,0 12,2 21 12 37 20 SSW 1004,5 51 0 0,2
28.10.2020 07:00:00 8,8 7,7 8,2 8,2 8,9 12,2 22 12 33 18 SSW 1003,7 17 0 0,1
28.10.2020 06:00:00 8,8 7,4 8,0 8,0 8,9 12,2 21 11 39 21 S 1003,4 21 0 0,1
28.10.2020 05:00:00 8,8 6,6 8,4 7,8 8,9 12,2 22 12 35 19 S 1003,4 41 0 0,0
28.10.2020 04:00:00 9,1 5,6 8,4 7,4 8,9 12,2 19 11 37 20 S 1003,6 65 0 0,0
28.10.2020 03:00:00 8,9 5,6 8,2 7,2 9,0 12,2 20 11 32 18 S 1004,0 66 0 0,0
28.10.2020 02:00:00 8,5 5,7 7,3 7,0 9,1 12,2 17 9 28 15 S 1004,5 67 0 0,0
28.10.2020 01:00:00 8,5 5,8 7,2 7,0 9,2 12,2 16 8 26 14 S 1004,9 67 0 0,0
28.10.2020 00:00:00 8,9 6,0 7,4 7,2 9,3 12,2 15 8 28 15 S 1005,2 68 0 0,0
27.10.2020 23:00:00 9,4 6,5 8,5 7,7 9,4 12,2 15 8 23 12 S 1005,5 56 0 0,0
27.10.2020 22:00:00 8,8 6,5 8,0 7,6 9,6 12,2 11 6 21 11 S 1005,9 55 0 0,0
27.10.2020 21:00:00 8,5 6,3 7,6 7,3 9,7 12,2 10 5 18 10 S 1005,9 60 0 0,0
27.10.2020 20:00:00 8,3 6,0 6,6 7,5 10,0 12,2 9 5 21 11 S 1005,9 66 0 0,0
27.10.2020 19:00:00 8,7 6,3 7,0 7,9 10,2 12,2 13 7 23 13 S 1005,9 46 0 0,0
27.10.2020 18:00:00 9,7 6,6 8,2 8,5 10,4 12,2 17 9 31 17 S 1005,7 52 0 0,0
27.10.2020 17:00:00 10,1 6,7 8,4 9,2 10,5 12,2 11 6 20 11 S 1005,6 51 8 0,0
27.10.2020 16:00:00 10,9 6,7 9,8 10,1 10,5 12,2 17 9 31 17 S 1005,4 54 44 0,0
27.10.2020 15:00:00 11,7 7,2 12,4 11,1 10,3 12,2 18 10 34 19 SSW 1005,6 58 23 0,0
27.10.2020 14:00:00 11,1 6,8 11,1 11,1 10,1 12,2 26 14 39 21 SSW 1005,9 56 8 0,0
27.10.2020 13:00:00 11,2 7,5 11,7 11,2 9,9 12,2 21 11 36 20 SSW 1005,5 39 28 0,0
27.10.2020 12:00:00 10,8 7,5 11,6 11,0 9,5 12,2 22 12 34 18 SSW 1005,5 60 29 0,0
27.10.2020 11:00:00 10,0 7,6 10,4 9,8 9,3 12,2 18 10 32 17 S 1005,7 49 0 0,0
27.10.2020 10:00:00 8,7 6,8 8,9 8,8 9,3 12,2 16 9 26 14 S 1005,5 52 0 0,0
27.10.2020 09:00:00 7,9 6,3 7,5 7,6 9,3 12,2 9 5 22 12 S 1005,5 50 0 0,0
27.10.2020 08:00:00 7,4 6,0 6,5 7,1 9,5 12,2 11 6 20 11 S 1005,0 54 0 0,0
27.10.2020 07:00:00 7,4 6,0 6,3 7,1 9,6 12,2 14 7 23 12 S 1004,7 50 0 0,0
27.10.2020 06:00:00 7,6 6,2 6,6 7,3 9,8 12,2 13 7 22 12 S 1004,1 50 0 0,0
27.10.2020 05:00:00 7,9 6,5 6,9 7,6 9,9 12,2 16 9 23 13 S 1003,7 42 0 0,0
27.10.2020 04:00:00 8,0 6,8 7,0 7,8 10,1 12,2 12 7 18 10 S 1003,5 36 0 0,0
27.10.2020 03:00:00 8,4 7,1 7,3 8,0 10,3 12,2 11 6 19 11 S 1003,4 34 0 0,0
27.10.2020 02:00:00 8,5 7,2 7,4 8,3 10,5 12,2 11 6 18 10 S 1003,4 31 0 0,0
27.10.2020 01:00:00 9,0 7,5 7,7 8,7 10,6 12,2 12 6 20 11 SSW 1003,8 45 0 0,0
27.10.2020 00:00:00 9,4 8,0 8,0 9,1 10,7 12,2 15 8 24 13 SSW 1003,5 40 0 0,0
26.10.2020 23:00:00 9,8 8,9 8,9 9,5 10,8 12,2 14 7 18 10 SSW 1003,2 32 0 0,0
26.10.2020 22:00:00 10,0 9,3 9,3 9,8 10,9 12,2 11 6 17 9 SSW 1003,0 27 0 0,0
26.10.2020 21:00:00 10,2 9,6 9,5 10,0 11,0 12,2 10 5 16 9 SSW 1002,7 21 0 0,0
26.10.2020 20:00:00 10,3 9,7 9,7 10,2 11,1 12,2 10 5 14 8 S 1002,7 19 0 0,0
26.10.2020 19:00:00 10,5 10,0 9,9 10,5 11,2 12,2 6 4 13 7 S 1002,3 28 0 0,2
26.10.2020 18:00:00 10,8 10,2 10,2 10,8 11,2 12,2 8 4 15 8 S 1002,6 17 0 0,6
26.10.2020 17:00:00 11,0 10,2 10,4 10,9 11,3 12,2 9 5 17 9 S 1002,4 15 0 0,6
26.10.2020 16:00:00 11,2 10,5 10,7 11,2 11,2 12,2 9 5 17 9 S 1002,5 13 0 0,8
26.10.2020 15:00:00 11,3 10,5 11,0 11,4 11,2 12,2 14 7 19 11 SE 1002,3 15 0 0,5
26.10.2020 14:00:00 11,5 10,7 11,0 11,5 11,1 12,2 5 3 12 7 SW 1001,6 12 0 1,4
26.10.2020 13:00:00 11,5 10,5 11,1 11,4 11,0 12,2 8 4 16 8 SSE 1002,4 15 0 0,9
26.10.2020 12:00:00 11,4 10,4 11,0 11,3 11,0 12,2 10 5 15 8 SSE 1002,4 18 0 0,3
26.10.2020 11:00:00 11,5 10,3 11,0 11,0 10,9 12,2 6 4 16 8 SSE 1002,9 18 0 0,0
26.10.2020 10:00:00 11,1 10,0 10,7 10,7 10,8 12,2 6 3 16 9 S 1002,4 28 0 0,0
26.10.2020 09:00:00 10,5 9,5 10,1 10,3 10,8 12,2 4 2 12 7 SSE 1002,6 36 0 0,0
26.10.2020 08:00:00 10,1 9,5 9,6 9,8 10,9 12,2 5 3 14 8 SSE 1002,3 27 0 0,0
26.10.2020 07:00:00 9,8 9,2 8,9 9,6 11,0 12,2 9 5 14 8 SSE 1002,2 23 0 0,0
26.10.2020 06:00:00 10,3 9,6 9,6 9,7 11,2 12,2 8 4 11 6 SSW 1002,4 33 0 0,0
26.10.2020 05:00:00 10,3 9,6 8,5 9,9 11,3 12,2 8 5 14 8 S 1001,7 36 0 0,0
26.10.2020 04:00:00 10,9 10,2 10,2 10,4 11,4 12,2 9 5 15 8 S 1002,3 31 0 0,0
26.10.2020 03:00:00 10,2 10,0 8,1 10,2 11,5 12,2 7 4 10 6 S 1002,3 26 0 0,0
26.10.2020 02:00:00 10,9 10,2 8,7 10,9 11,6 12,2 7 4 16 9 SSE 1001,8 36 0 0,1
26.10.2020 01:00:00 11,7 11,0 11,2 11,3 11,6 12,2 11 6 17 9 S 1002,7 6 0 0,1
26.10.2020 00:00:00 11,9 10,9 11,3 11,4 11,7 12,2 8 4 18 10 S 1002,5 62 0 0,6
25.10.2020 23:00:00 12,1 11,0 11,2 11,4 11,7 12,2 8 5 26 14 SSE 1002,5 17 0 0,6
25.10.2020 22:00:00 12,4 10,7 11,3 11,5 11,8 12,2 8 4 12 6 S 1003,2 31 0 0,4
25.10.2020 21:00:00 12,9 10,8 11,6 11,7 11,8 12,2 11 6 18 10 S 1003,2 27 0 0,6
25.10.2020 20:00:00 13,0 10,7 11,6 11,7 11,9 12,2 9 5 20 11 S 1003,1 24 0 0,5
25.10.2020 19:00:00 13,6 10,3 12,7 11,8 11,9 12,2 12 6 20 11 SSE 1003,2 69 0 0,0
25.10.2020 18:00:00 14,1 10,2 13,2 12,0 11,9 12,2 13 7 27 14 S 1003,7 64 0 0,0
25.10.2020 17:00:00 14,2 10,3 13,3 12,2 12,0 12,2 14 8 24 13 S 1003,7 71 0 0,0
25.10.2020 16:00:00 14,2 10,4 13,4 12,5 11,9 12,2 16 8 33 18 S 1003,8 75 0 0,0
25.10.2020 15:00:00 14,3 10,5 13,9 12,9 11,8 12,2 17 9 35 19 S 1003,8 73 0 0,0
25.10.2020 14:00:00 14,4 10,4 14,2 13,1 11,7 12,2 17 9 31 17 S 1003,9 75 0 0,0
25.10.2020 13:00:00 14,3 10,2 14,5 13,0 11,5 12,2 20 11 39 21 S 1004,5 68 9 0,0
25.10.2020 12:00:00 13,6 10,0 13,6 12,4 11,4 12,2 18 10 36 19 S 1004,9 58 0 0,0
25.10.2020 11:00:00 13,3 9,7 13,1 12,3 11,3 12,2 17 9 29 16 S 1005,2 75 0 0,0
25.10.2020 10:00:00 12,8 9,6 12,8 11,8 11,2 12,2 16 9 29 16 S 1005,2 75 21 0,0
25.10.2020 09:00:00 12,5 9,4 12,5 11,5 11,2 12,2 16 9 34 18 SSE 1005,6 75 15 0,0
25.10.2020 08:00:00 12,7 9,5 12,1 11,1 11,2 12,2 16 9 29 16 S 1005,7 75 1 0,0
25.10.2020 07:00:00 12,9 9,8 12,2 11,0 11,1 12,2 13 7 27 15 S 1006,1 75 0 0,0
25.10.2020 06:00:00 13,0 9,8 12,3 11,0 11,1 12,2 16 8 25 13 S 1006,2 67 0 0,0
25.10.2020 05:00:00 12,9 9,9 12,2 10,9 11,1 12,2 12 7 27 15 S 1006,5 62 0 0,0
25.10.2020 04:00:00 12,9 9,9 12,2 11,0 11,1 12,2 15 8 29 15 S 1007,1 69 0 0,0
25.10.2020 03:00:00 12,7 10,0 12,1 10,8 11,2 12,2 13 7 25 14 S 1007,5 69 0 0,0
25.10.2020 02:00:00 12,2 9,9 10,9 10,7 11,2 12,1 11 6 22 12 S 1008,1 63 0 0,0
25.10.2020 01:00:00 - - - - - - - - - - - - - - -
25.10.2020 00:00:00 12,1 10,5 11,3 10,7 11,3 12,2 10 6 18 10 S 1008,9 51 0 0,0
24.10.2020 23:00:00 11,7 10,4 10,4 10,5 11,3 12,1 11 6 18 10 S 1009,3 32 0 0,0
24.10.2020 22:00:00 12,1 10,9 10,7 10,9 11,4 12,1 12 6 19 10 S 1009,6 31 0 0,0
24.10.2020 21:00:00 12,4 11,2 11,7 11,2 11,4 12,1 13 7 20 11 S 1009,9 31 0 0,0
24.10.2020 20:00:00 12,3 10,6 11,2 11,1 11,5 12,1 10 5 17 9 S 1010,0 40 0 0,0
24.10.2020 19:00:00 12,1 10,7 11,0 11,3 11,6 12,1 9 5 24 13 S 1010,4 39 0 0,1
24.10.2020 18:00:00 12,7 8,7 11,8 11,3 11,6 12,1 9 5 14 8 S 1010,3 70 0 0,0
24.10.2020 17:00:00 12,9 8,4 11,9 11,6 11,7 12,1 11 6 21 11 SSW 1010,4 64 1 0,0
24.10.2020 16:00:00 13,2 8,3 12,0 12,1 11,6 12,1 11 6 25 14 WSW 1010,4 51 23 0,0
24.10.2020 15:00:00 14,0 9,3 14,3 12,5 11,5 12,1 14 7 34 18 W 1010,3 66 60 0,0
24.10.2020 14:00:00 14,0 8,5 14,6 12,8 11,3 12,1 26 14 41 22 W 1010,2 54 12 0,0
24.10.2020 13:00:00 13,5 10,5 13,3 12,6 11,2 12,1 16 9 29 16 WSW 1010,1 32 1 0,0
24.10.2020 12:00:00 13,2 11,2 13,2 12,4 11,0 12,1 17 9 29 16 SW 1009,9 21 0 0,2
24.10.2020 11:00:00 13,2 10,6 13,1 12,1 10,8 12,1 17 9 33 18 SW 1009,8 20 0 0,0

tt = temperature
td = dewpoint
tt 5cm = temperature 5cm
tt -5cm = temperature -5cm
tt -20cm = temperature -20cm
tt -100cm = temperature -100cm
ff = wind speed
fx = gusts
dd = wind direction
ppp = reduced air pressure
vv = visibility
sd = sunshine duration
rr = precipitation

Next stations